Flight Track Log - Related Links

Times and Time Zones

All times are in EDT time to prevent confusion due to time zone crossing. See the N960DL flight status page for this flight to view local times or setup timezone preferences in your user account.

Time Position Orientation Groundspeed Altitude Reporting Facility
EDT Latitude Longitude Course Direction KTS MPH feet Rate Location/Type
Wed 06:50:59 PM 28.1167 -80.5500 77° East 230 265 3,300  Level Orlando TRACON
Wed 06:51:59 PM 28.1667 -80.5333 16° North 258 297 6,200 2,695 Climbing Orlando TRACON
Wed 06:52:00 PM 28.3296 -80.7469 296° West  Level FlightAware Approximate
Wed 06:53:00 PM 28.3740 -80.8601 287° West  Level FlightAware Approximate
Wed 06:54:00 PM 28.4063 -80.9788 287° West  Level FlightAware Approximate
Wed 06:54:06 PM 28.2022 -80.7000 284° West 294 338 11,700  Level Jacksonville Center
Wed 06:55:00 PM 28.4544 -81.0777 294° West  Level FlightAware Approximate
Wed 06:55:06 PM 28.2497 -80.8050 297° West 344 396 13,500  Level Jacksonville Center
Wed 06:56:06 PM 28.3447 -80.8714 328° Northwest 349 402 14,000 250 Climbing Jacksonville Center
Wed 06:57:06 PM 28.4356 -80.9428 325° Northwest 373 429 14,000 250 Level Jacksonville Center
Wed 06:58:06 PM 28.5286 -81.0117 327° Northwest 387 445 14,500 900 Climbing Jacksonville Center
Wed 06:59:06 PM 28.6253 -81.0761 330° Northwest 400 460 15,800 1,800 Climbing Jacksonville Center
Wed 07:00:06 PM 28.7344 -81.1167 342° North 405 466 18,100 2,350 Climbing Jacksonville Center
Wed 07:01:06 PM 28.8575 -81.1169 360° North 417 480 20,500 2,500 Climbing Jacksonville Center
Wed 07:02:06 PM 28.9933 -81.1264 357° North 434 499 23,100 2,150 Climbing Jacksonville Center
Wed 07:03:06 PM 29.1208 -81.1336 357° North 445 512 24,800 1,664 Climbing Jacksonville Center
Wed 07:04:05 PM 29.2525 -81.1408 357° North 455 524 26,400 1,563 Climbing Jacksonville Center
Wed 07:05:05 PM 29.3861 -81.1433 359° North 461 531 27,900 1,388 Climbing Jacksonville Center
Wed 07:06:06 PM 29.5156 -81.1528 356° North 467 537 29,200 1,388 Climbing Jacksonville Center
Wed 07:07:06 PM 29.6472 -81.1578 358° North 472 543 30,700 1,350 Climbing Jacksonville Center
Wed 07:08:06 PM 29.7789 -81.1600 359° North 472 543 31,900 1,160 Climbing Jacksonville Center
Wed 07:09:05 PM 29.9083 -81.1744 354° North 472 543 33,000 1,050 Climbing Jacksonville Center
Wed 07:10:06 PM 30.0300 -81.2253 340° North 450 518 34,000 893 Climbing Jacksonville Center
Wed 07:11:06 PM 30.1394 -81.2928 332° Northwest 450 518 34,800 504 Climbing Jacksonville Center
Wed 07:12:05 PM 30.2469 -81.3633 330° Northwest 444 511 35,000 100 Climbing Jacksonville Center
Wed 07:13:06 PM 30.3564 -81.4314 332° Northwest 444 511 35,000  Level Jacksonville Center
Wed 07:14:06 PM 30.4636 -81.5044 330° Northwest 444 511 35,000  Level Jacksonville Center
Wed 07:15:06 PM 30.5728 -81.5728 332° Northwest 449 517 35,000  Level Jacksonville Center
Wed 07:16:06 PM 30.6842 -81.6461 330° Northwest 449 517 35,000  Level Jacksonville Center
Wed 07:17:06 PM 30.7914 -81.7172 330° Northwest 449 517 35,000  Level Jacksonville Center
Wed 07:18:05 PM 30.9006 -81.7886 331° Northwest 449 517 35,000  Level Jacksonville Center
Wed 07:19:06 PM 31.0056 -81.8575 331° Northwest 449 517 35,000 -50 Level Jacksonville Center
Wed 07:20:06 PM 31.1128 -81.9269 331° Northwest 443 510 34,900  Descending Jacksonville Center
Wed 07:21:06 PM 31.2175 -81.9961 331° Northwest 443 510 35,000 50 Climbing Jacksonville Center
Wed 07:22:06 PM 31.3244 -82.0706 329° Northwest 443 510 35,000  Level Jacksonville Center
Wed 07:24:06 PM 31.5453 -82.2064 332° Northwest 442 509 35,000  Level Atlanta Center
Wed 07:25:06 PM 31.6506 -82.2775 330° Northwest 437 503 35,000  Level Atlanta Center
Wed 07:26:06 PM 31.7581 -82.3461 332° Northwest 437 503 35,000  Level Atlanta Center
Wed 07:27:06 PM 31.8653 -82.4128 332° Northwest 437 503 35,000  Level Atlanta Center
Wed 07:28:06 PM 31.9747 -82.4744 334° Northwest 437 503 35,000  Level Atlanta Center
Wed 07:29:06 PM 32.0839 -82.5411 333° Northwest 437 503 35,000 -200 Level Atlanta Center
Wed 07:30:06 PM 32.1789 -82.6303 322° Northwest 442 509 34,600 -900 Descending Atlanta Center
Wed 07:31:06 PM 32.2739 -82.7244 320° Northwest 442 509 33,200 -1,250 Descending Atlanta Center
Wed 07:32:06 PM 32.3644 -82.8117 321° Northwest 442 509 32,100 -1,250 Descending Atlanta Center
Wed 07:33:06 PM 32.4428 -82.9042 315° West 415 478 30,700 -1,700 Descending Atlanta Center
Wed 07:34:06 PM 32.5186 -82.9894 317° Northwest 393 452 28,700 -1,950 Descending Atlanta Center
Wed 07:35:06 PM 32.5922 -83.0750 316° Northwest 380 437 26,800 -2,050 Descending Atlanta Center
Wed 07:36:06 PM 32.6639 -83.1581 316° Northwest 368 423 24,600 -2,000 Descending Atlanta Center
Wed 07:37:06 PM 32.7292 -83.2364 315° West 354 407 22,800 -1,800 Descending Atlanta Center
Wed 07:38:06 PM 32.7944 -83.3097 317° Northwest 337 388 21,000 -1,850 Descending Atlanta Center
Wed 07:39:06 PM 32.8594 -83.3858 315° West 331 381 19,100 -1,800 Descending Atlanta Center
Wed 07:40:06 PM 32.9183 -83.4622 313° West 321 369 17,400 -1,850 Descending Atlanta Center
Wed 07:41:06 PM 32.9792 -83.5361 314° West 315 362 15,400 -1,900 Descending Atlanta Center
Wed 07:42:06 PM 33.0400 -83.6028 317° Northwest 310 357 13,600 -1,500 Descending Atlanta Center
Wed 07:43:06 PM 33.0944 -83.6719 313° West 310 357 12,400 -800 Descending Atlanta Center
Wed 07:44:06 PM 33.1553 -83.7386 317° Northwest 305 351 12,000 -231 Descending Atlanta Center
Wed 07:44:50 PM 33.2000 -83.7833 320° Northwest 291 335 12,000 -327 Level Atlanta TRACON
Wed 07:45:56 PM 33.2667 -83.8667 314° West 289 333 11,400 -1,000 Descending Atlanta TRACON
Wed 07:46:50 PM 33.3000 -83.9333 301° West 281 323 10,000 -1,632 Descending Atlanta TRACON
Wed 07:47:50 PM 33.3500 -84.0000 312° West 277 319 8,300 -1,667 Descending Atlanta TRACON
Wed 07:48:56 PM 33.4333 -84.0167 351° North 262 302 6,500 -1,588 Descending Atlanta TRACON
Wed 07:50:06 PM 33.5144 -84.0414 346° North 253 291 4,700 -1,292 Descending Atlanta Center
Wed 07:51:06 PM 33.5875 -84.0589 349° North 258 297 3,700 -850 Descending Atlanta Center
Wed 07:52:06 PM 33.6167 -84.1286 297° West 230 265 3,000 -382 Descending Atlanta Center
Wed 07:52:56 PM 33.6167 -84.1833 270° West 216 249 3,000  Level Atlanta TRACON
Wed 07:53:50 PM 33.6167 -84.2500 270° West 216 249 3,000 -263 Level Atlanta TRACON
Wed 07:54:50 PM 33.6167 -84.3167 270° West 199 229 2,500 -650 Descending Atlanta TRACON
Wed 07:55:50 PM 33.6167 -84.3667 270° West 140 161 1,700 -800 Descending Atlanta TRACON

Login

Don't have an account? Register now (free) for customized features, flight alerts, and more!